Total_Precipitation_Accumulation
1.01 1.03 1.03 1.01 0.91 0.90 0.95 0.95 0.94 0.95 0.99 0.98 0.89 0.82 0.89 0.89 0.85 0.91 0.96 1.02 1.10 1.25 1.40 1.53 1.68 1.92 2.20 2.22 2.17 2.04 1.90 1.72 1.47 1.34 1.15 1.06 1.33 1.43 1.36 1.21 1.17 1.13 0.91
0.94 0.97 0.96 0.87 0.82 0.78 0.77 0.74 0.66 0.64 0.67 0.76 0.84 0.79 0.78 0.80 0.82 0.88 0.90 0.94 0.97 1.05 1.15 1.27 1.44 1.73 2.07 2.28 2.36 2.26 2.10 1.93 1.76 1.61 1.30 1.06 1.16 1.48 1.61 1.53 1.29 1.13 1.01
1.02 0.87 0.79 0.75 0.72 0.70 0.61 0.57 0.55 0.50 0.50 0.54 0.63 0.64 0.73 0.80 0.83 0.85 0.87 0.91 0.93 1.01 1.16 1.21 1.27 1.46 1.65 1.86 2.05 2.17 2.15 2.12 2.06 1.81 1.52 1.27 1.20 1.31 1.54 1.55 1.47 1.41 1.22
1.13 1.02 0.87 0.77 0.70 0.64 0.57 0.54 0.51 0.49 0.52 0.58 0.70 0.74 0.70 0.68 0.73 0.84 0.88 0.84 0.83 0.87 0.96 1.05 1.15 1.19 1.35 1.48 1.59 1.77 1.98 2.21 2.27 2.11 1.85 1.54 1.41 1.29 1.38 1.53 1.60 1.53 1.44
1.10 1.08 0.92 0.86 0.79 0.65 0.60 0.61 0.58 0.61 0.57 0.59 0.70 0.81 0.87 0.83 0.80 0.89 0.86 0.84 0.84 0.83 0.88 0.88 0.94 0.97 1.03 1.20 1.24 1.45 1.77 2.04 2.14 2.20 2.09 1.79 1.53 1.35 1.14 1.23 1.48 1.67 1.65
0.76 0.83 0.78 0.70 0.61 0.58 0.57 0.55 0.52 0.51 0.47 0.47 0.51 0.58 0.68 0.72 0.93 0.89 0.74 0.70 0.75 0.82 0.87 0.86 0.88 0.83 0.81 0.87 0.99 1.11 1.40 1.61 1.74 1.81 1.84 1.69 1.49 1.35 1.30 1.26 1.31 1.44 1.49
0.48 0.57 0.56 0.50 0.44 0.41 0.45 0.46 0.43 0.39 0.40 0.38 0.37 0.38 0.44 0.60 0.68 0.52 0.51 0.57 0.71 0.82 0.89 0.92 0.88 0.83 0.87 0.88 0.89 0.89 0.95 1.12 1.33 1.53 1.56 1.47 1.52 1.43 1.35 1.25 1.26 1.26 1.25
0.23 0.27 0.28 0.29 0.28 0.29 0.31 0.32 0.33 0.32 0.30 0.29 0.37 0.44 0.46 0.48 0.53 0.44 0.43 0.54 0.73 0.87 0.87 0.83 0.89 0.90 0.93 0.99 0.92 0.97 0.92 0.89 0.98 1.03 1.17 1.38 1.52 1.67 1.63 1.53 1.53 1.46 1.37
0.07 0.08 0.11 0.13 0.15 0.17 0.18 0.21 0.30 0.33 0.34 0.37 0.49 0.56 0.50 0.42 0.46 0.48 0.53 0.68 0.81 0.89 0.85 0.85 0.92 0.96 1.09 1.13 1.04 1.09 1.03 0.99 0.95 1.05 1.14 1.25 1.34 1.46 1.58 1.60 1.56 1.52 1.39
0.01 0.01 0.01 0.02 0.03 0.06 0.08 0.11 0.17 0.24 0.31 0.39 0.41 0.38 0.38 0.44 0.51 0.50 0.63 0.81 0.93 1.03 0.99 0.98 1.16 1.11 1.08 1.03 1.01 1.15 1.11 0.95 0.87 0.90 0.95 1.02 1.07 1.18 1.30 1.32 1.43 1.49 1.40
0.01 0.01 0.01 0.01 0.01 0.01 0.02 0.03 0.06 0.11 0.15 0.18 0.19 0.23 0.30 0.46 0.52 0.56 0.75 0.85 0.91 1.06 1.08 1.04 0.97 1.10 1.04 0.96 0.96 1.01 1.14 1.00 0.92 0.95 0.95 0.94 0.96 1.00 1.05 1.11 1.21 1.31 1.35
0.01 0.01 0.01 0.01 0.01 0.01 0.02 0.02 0.02 0.04 0.07 0.10 0.13 0.17 0.23 0.31 0.39 0.46 0.60 0.73 0.81 0.98 1.06 0.95 0.85 1.09 1.05 0.95 0.86 0.88 1.01 1.06 1.05 1.07 1.06 0.98 0.90 0.87 0.86 0.92 1.01 1.11 1.18
0.01 0.01 0.01 0.01 0.01 0.01 0.02 0.02 0.02 0.03 0.06 0.08 0.12 0.19 0.25 0.30 0.32 0.39 0.46 0.56 0.68 0.86 0.91 0.92 0.94 0.98 0.90 0.86 0.93 0.95 0.96 0.97 1.06 1.10 0.99 0.85 0.78 0.75 0.80 0.90 1.01 1.11 1.17
0.00 0.01 0.01 0.01 0.02 0.01 0.02 0.02 0.03 0.03 0.06 0.10 0.17 0.23 0.27 0.30 0.32 0.40 0.48 0.52 0.61 0.71 0.72 0.76 0.79 0.77 0.77 0.80 0.86 0.95 0.97 1.00 1.01 0.96 0.84 0.71 0.71 0.75 0.75 0.78 0.90 1.03 1.16
0.00 0.00 0.01 0.01 0.02 0.02 0.02 0.02 0.03 0.03 0.06 0.12 0.16 0.20 0.21 0.24 0.28 0.37 0.50 0.58 0.68 0.78 0.80 0.73 0.74 0.74 0.73 0.73 0.78 0.81 0.83 0.81 0.82 0.80 0.75 0.73 0.74 0.75 0.74 0.72 0.77 0.81 0.84
0.00 0.00 0.01 0.01 0.02 0.03 0.04 0.03 0.02 0.02 0.03 0.06 0.07 0.10 0.17 0.20 0.18 0.21 0.32 0.46 0.62 0.84 1.06 1.07 1.06 0.99 0.90 0.80 0.73 0.66 0.63 0.64 0.66 0.71 0.73 0.70 0.68 0.71 0.75 0.75 0.77 0.79 0.76
0.00 0.00 0.00 0.01 0.02 0.03 0.05 0.09 0.10 0.07 0.03 0.03 0.04 0.07 0.13 0.18 0.18 0.22 0.29 0.34 0.46 0.76 1.11 1.12 1.10 0.95 0.81 0.74 0.64 0.54 0.48 0.49 0.54 0.55 0.58 0.61 0.60 0.61 0.66 0.70 0.69 0.72 0.72
0.00 0.01 0.01 0.02 0.03 0.03 0.04 0.09 0.19 0.25 0.20 0.09 0.04 0.06 0.11 0.19 0.24 0.32 0.42 0.52 0.58 0.71 0.82 0.82 0.74 0.66 0.59 0.50 0.47 0.44 0.39 0.42 0.48 0.48 0.49 0.49 0.48 0.51 0.54 0.61 0.62 0.60 0.61
0.01 0.01 0.04 0.06 0.04 0.03 0.05 0.13 0.18 0.11 0.10 0.12 0.11 0.07 0.08 0.11 0.16 0.23 0.35 0.46 0.47 0.50 0.50 0.45 0.38 0.35 0.35 0.32 0.32 0.33 0.32 0.33 0.38 0.43 0.45 0.43 0.40 0.42 0.45 0.49 0.54 0.58 0.55
0.00 0.01 0.03 0.08 0.09 0.05 0.06 0.11 0.09 0.08 0.10 0.12 0.13 0.11 0.11 0.12 0.14 0.17 0.22 0.26 0.27 0.28 0.27 0.27 0.24 0.23 0.25 0.24 0.25 0.26 0.26 0.29 0.31 0.35 0.38 0.40 0.39 0.37 0.39 0.41 0.44 0.46 0.45
0.00 0.01 0.02 0.05 0.08 0.05 0.06 0.07 0.06 0.07 0.09 0.11 0.11 0.10 0.12 0.17 0.17 0.17 0.17 0.16 0.19 0.20 0.22 0.23 0.22 0.22 0.24 0.24 0.26 0.28 0.30 0.31 0.31 0.33 0.34 0.35 0.38 0.38 0.38 0.39 0.41 0.40 0.41
0.01 0.01 0.02 0.05 0.06 0.04 0.04 0.07 0.08 0.07 0.07 0.09 0.10 0.10 0.12 0.18 0.19 0.18 0.16 0.15 0.15 0.17 0.23 0.26 0.27 0.28 0.27 0.27 0.28 0.30 0.31 0.32 0.32 0.31 0.33 0.34 0.34 0.34 0.36 0.38 0.40 0.40 0.38
0.03 0.03 0.03 0.05 0.06 0.05 0.04 0.05 0.09 0.11 0.09 0.10 0.11 0.11 0.12 0.15 0.17 0.20 0.20 0.19 0.22 0.25 0.23 0.24 0.28 0.29 0.28 0.28 0.30 0.33 0.37 0.37 0.36 0.36 0.37 0.34 0.33 0.32 0.34 0.34 0.35 0.37 0.36
0.03 0.03 0.03 0.05 0.06 0.06 0.06 0.07 0.07 0.07 0.10 0.12 0.13 0.13 0.14 0.17 0.19 0.17 0.18 0.24 0.26 0.25 0.25 0.24 0.24 0.28 0.29 0.30 0.31 0.33 0.35 0.38 0.40 0.41 0.41 0.39 0.37 0.35 0.35 0.36 0.37 0.38 0.42
0.04 0.04 0.05 0.06 0.08 0.08 0.08 0.09 0.08 0.08 0.11 0.15 0.13 0.13 0.13 0.14 0.16 0.14 0.16 0.20 0.23 0.22 0.22 0.22 0.23 0.25 0.27 0.28 0.30 0.32 0.37 0.41 0.43 0.42 0.43 0.44 0.43 0.42 0.39 0.40 0.44 0.46 0.49
0.06 0.06 0.07 0.08 0.09 0.10 0.11 0.12 0.12 0.13 0.14 0.13 0.13 0.15 0.16 0.17 0.18 0.17 0.17 0.18 0.20 0.21 0.21 0.22 0.23 0.25 0.25 0.26 0.31 0.36 0.38 0.36 0.37 0.41 0.42 0.46 0.48 0.46 0.45 0.43 0.43 0.44 0.47